Wind_Speed
7 6 6 6 6 6 7 7 6 6 7 8 10 10 12 13 14 16 17 18 20 21 22 24 23 22 20 17 16 17 16 15 14 14 15 15 15 15 16 13 10 9 12
7 7 7 7 6 6 6 6 6 6 6 7 8 10 11 12 12 13 14 15 17 19 22 24 26 25 24 23 20 19 17 17 17 14 14 17 17 18 18 18 16 13 13
5 5 6 6 7 8 7 7 7 6 6 7 8 8 9 10 12 12 12 13 13 15 19 22 28 28 29 28 29 26 24 20 21 20 19 16 17 20 20 20 20 19 16
3 3 4 4 4 5 7 7 7 6 5 5 6 7 8 8 8 8 9 10 11 12 13 15 19 25 27 29 31 31 31 30 22 23 21 23 19 17 20 21 22 23 22
3 4 5 5 5 5 6 6 6 6 5 5 6 6 6 7 7 7 7 8 9 10 10 12 12 15 19 26 28 32 34 34 33 26 25 21 23 16 20 21 24 24 25
4 6 7 7 8 8 8 8 9 8 6 5 5 6 5 5 5 6 6 6 6 7 8 9 10 11 14 17 21 29 32 36 35 34 29 26 25 27 24 23 24 25 26
4 6 7 7 7 8 9 9 9 10 9 7 3 3 5 6 7 5 4 5 4 5 7 9 10 11 11 13 16 18 24 31 35 37 34 34 33 27 31 30 22 25 26
6 6 6 7 7 8 8 9 9 11 12 12 10 6 0 4 8 9 7 6 5 7 9 9 10 12 12 13 13 15 17 20 26 30 30 35 36 38 32 27 34 19 29
7 7 7 7 8 8 9 9 11 11 11 12 10 6 3 2 7 8 11 9 7 8 11 10 11 12 13 13 14 14 15 16 18 20 24 31 37 37 37 37 26 28 17
8 9 9 8 9 9 10 11 11 12 11 10 9 7 6 6 4 7 6 9 11 11 10 9 10 10 11 13 14 14 14 15 15 20 23 22 26 32 35 38 41 34 43
9 10 9 10 10 10 11 11 11 11 11 11 10 9 8 8 8 7 17 16 17 14 12 12 10 9 10 11 13 15 16 16 18 20 23 25 27 30 36 37 34 44 42
10 10 11 11 11 11 11 12 12 12 12 13 13 12 11 10 12 11 16 22 23 21 17 13 11 10 10 10 11 13 15 18 21 21 24 26 27 28 30 36 39 38 48
11 12 12 12 12 12 13 13 14 14 14 15 14 13 13 13 14 16 18 20 21 27 21 16 12 12 12 14 14 15 14 16 19 22 26 27 29 31 33 34 37 42 47
11 12 13 12 12 13 14 15 15 16 16 16 16 15 15 16 16 17 18 19 23 20 24 17 17 13 17 19 20 20 20 20 19 19 22 27 32 36 37 37 36 38 41
12 13 13 13 13 14 15 15 16 16 17 17 17 17 17 17 17 17 18 17 16 10 20 23 21 19 21 21 20 21 22 23 24 26 27 26 28 31 35 39 40 41 41
13 14 14 14 14 15 15 16 16 17 18 17 17 18 18 19 18 18 17 17 17 18 15 23 27 25 24 22 20 21 22 23 23 25 27 29 30 30 31 33 39 43 44
14 15 14 15 15 15 15 16 17 17 19 18 18 18 18 19 18 17 17 17 18 19 25 27 27 26 26 24 21 21 24 25 25 24 25 27 29 31 33 34 34 38 43
15 14 15 15 16 16 16 17 17 17 19 19 18 18 18 18 17 16 17 17 19 20 26 30 29 29 29 26 26 26 26 26 27 27 27 27 29 31 32 33 35 36 38
14 15 16 17 17 18 18 18 18 18 18 18 18 18 17 16 17 18 19 19 22 23 25 29 30 29 30 28 30 29 28 29 28 28 29 30 31 33 34 34 35 37 40
15 16 17 18 18 19 19 18 18 17 16 15 15 17 17 18 19 19 21 22 22 24 24 27 32 32 32 30 31 34 36 32 34 32 32 33 34 33 34 36 37 38 39
16 17 18 18 18 19 18 18 17 16 16 17 17 19 19 19 20 22 22 22 23 25 30 32 34 33 30 30 33 35 38 38 38 37 36 34 34 34 33 34 38 39 40
16 18 19 18 18 18 17 17 16 19 20 19 19 19 20 20 21 22 24 25 26 29 32 29 30 28 28 31 33 35 36 40 45 40 36 42 37 39 38 38 37 39 41
17 18 18 18 18 18 17 17 16 18 19 21 21 21 21 22 22 23 25 25 26 27 28 29 35 37 38 36 35 37 38 35 41 42 37 44 42 43 40 36 36 36 35
18 18 17 17 18 17 17 16 16 17 18 20 22 22 23 24 25 25 25 27 27 26 27 30 34 37 38 31 30 32 36 38 43 46 38 44 47 46 44 44 44 43 41
17 17 17 17 17 18 16 16 15 18 18 18 18 19 22 24 22 22 25 29 30 31 31 33 35 33 32 31 30 33 35 34 39 42 32 40 50 47 48 49 44 40 34
17 16 17 16 17 18 14 14 15 16 18 20 20 21 20 21 21 22 25 28 32 33 34 35 31 30 33 37 34 33 38 40 42 45 36 35 42 40 34 45 40 37 30
Wind_Direction
274 275 276 280 280 276 277 279 277 265 258 260 258 253 248 246 243 240 242 242 240 238 237 239 241 246 241 240 241 248 247 231 224 230 229 233 237 243 241 237 234 221 203
265 276 286 290 293 294 294 291 286 282 275 269 264 259 261 259 253 247 246 249 246 243 240 235 236 237 238 238 241 239 239 243 234 223 238 241 237 237 243 243 235 232 215
247 260 272 286 299 305 305 302 301 301 299 293 286 276 262 257 255 253 248 247 247 245 242 241 240 236 233 236 236 239 236 229 233 230 223 231 240 239 237 243 240 236 233
257 268 278 282 294 305 306 308 309 311 306 286 276 279 284 275 262 249 237 237 242 244 247 247 244 246 244 240 239 239 241 242 237 236 236 231 237 240 235 236 245 241 238
312 325 328 329 323 322 323 319 318 316 321 319 303 290 267 254 248 247 244 237 238 244 249 252 249 247 245 244 242 243 242 243 244 240 234 237 237 237 237 236 239 243 245
317 333 340 348 349 351 352 349 347 344 343 336 326 309 278 242 223 221 230 238 248 255 260 264 262 259 253 250 245 243 244 246 245 247 245 237 241 238 243 235 236 241 242
305 323 329 335 340 342 345 353 357 358 356 357 3 305 250 248 236 229 232 236 260 278 283 284 281 273 269 265 258 254 247 247 246 247 247 245 244 239 239 238 248 238 244
302 309 315 317 324 332 336 341 346 353 355 359 4 4 50 256 237 239 257 260 287 306 305 298 295 292 288 283 277 271 263 257 251 248 250 246 245 246 245 236 233 243 234
291 296 301 305 312 319 324 331 336 343 352 356 2 15 2 337 320 266 247 240 279 308 313 310 307 302 298 295 292 287 278 270 261 255 254 251 249 249 246 244 235 231 231
289 294 297 299 304 311 318 322 328 332 338 341 346 347 333 313 328 297 255 262 289 307 311 312 310 309 308 303 301 298 293 284 275 260 255 259 258 254 254 247 247 242 229
278 284 287 291 297 304 309 314 318 321 324 326 327 321 318 312 299 289 303 303 300 308 313 316 317 315 313 308 302 298 294 287 279 277 273 271 267 263 257 258 255 249 241
277 279 281 285 292 298 302 306 308 309 308 308 307 303 300 299 294 294 294 305 311 313 320 322 325 325 316 308 302 294 294 294 292 284 278 277 277 274 267 260 261 263 250
271 274 275 281 286 292 296 299 299 297 295 294 293 291 290 289 288 290 291 300 306 311 316 317 327 334 338 334 327 320 304 293 287 287 289 286 279 278 278 273 266 268 267
272 274 277 280 285 289 291 292 292 291 288 285 284 285 285 283 283 284 287 293 304 308 310 315 321 330 334 331 331 326 320 317 311 298 283 279 282 284 283 281 276 272 269
273 274 278 280 282 285 288 289 288 285 283 281 280 279 280 281 281 281 280 281 284 295 303 307 314 319 326 324 326 325 325 319 315 315 311 302 288 279 277 281 280 275 272
272 274 276 281 284 287 288 289 288 284 281 279 278 277 278 279 279 276 274 274 274 276 271 298 304 309 314 317 318 319 324 322 318 312 308 307 303 295 286 275 273 277 276
268 269 273 276 279 282 284 286 287 285 281 278 276 278 278 278 277 274 270 267 270 277 280 292 296 303 306 314 316 311 315 317 318 317 314 310 305 301 296 289 279 273 272
264 268 272 277 279 281 285 286 285 284 282 278 275 273 273 275 271 267 268 271 275 280 285 288 296 298 299 305 309 310 314 311 311 314 312 308 305 301 296 290 287 281 272
268 270 274 276 278 282 284 286 286 285 281 277 273 273 271 268 264 268 273 274 276 278 283 288 294 300 300 303 304 305 307 307 306 308 309 309 308 301 296 292 287 282 279
267 270 271 274 278 282 284 288 290 289 287 283 276 272 266 266 268 273 270 270 274 283 288 291 294 298 301 305 304 307 306 305 302 301 302 306 307 306 298 293 291 287 282
270 271 274 278 281 282 284 288 290 294 291 288 282 276 274 269 272 272 274 277 284 288 290 291 291 292 294 294 300 306 303 307 299 299 303 303 305 305 302 294 288 287 284
271 274 278 281 282 281 283 285 283 289 294 295 293 290 285 278 276 269 266 269 279 283 284 282 291 292 290 291 295 296 298 299 297 300 302 302 298 299 305 306 298 292 284
275 278 278 279 281 280 283 284 285 283 284 283 285 286 287 283 281 277 274 269 268 265 266 274 278 280 285 287 287 284 287 285 288 299 297 297 295 292 295 300 304 298 293
276 277 279 280 282 284 285 285 285 282 278 278 278 281 283 284 283 279 280 276 277 276 272 276 278 286 291 291 288 288 290 290 291 292 287 286 290 292 293 293 294 294 284
278 279 281 285 285 284 284 283 284 280 282 283 282 285 288 289 284 277 277 277 276 279 283 284 282 281 278 281 280 284 282 286 287 288 282 285 290 290 294 293 287 295 291
283 282 282 285 288 288 284 280 281 289 291 293 292 289 290 288 285 281 279 279 281 284 287 289 287 283 284 286 283 280 284 283 285 284 281 273 280 281 279 288 288 290 284
Height
1516 1516 1517 1517 1517 1517 1517 1518 1518 1519 1521 1521 1521 1520 1522 1522 1525 1527 1527 1528 1531 1533 1535 1539 1541 1543 1545 1548 1549 1551 1553 1554 1554 1556 1558 1561 1564 1566 1568 1569 1571 1572 1573
1516 1516 1516 1516 1516 1516 1515 1515 1516 1518 1519 1519 1519 1519 1517 1520 1522 1524 1523 1524 1527 1529 1532 1532 1535 1539 1541 1544 1546 1546 1548 1550 1552 1553 1556 1559 1560 1563 1565 1567 1569 1571 1572
1515 1515 1514 1515 1515 1515 1514 1515 1515 1516 1516 1516 1515 1515 1519 1518 1519 1520 1519 1522 1522 1524 1525 1528 1530 1532 1537 1537 1538 1542 1545 1544 1548 1550 1552 1554 1556 1559 1561 1563 1566 1569 1570
1513 1513 1513 1513 1514 1514 1513 1513 1513 1514 1516 1516 1515 1515 1514 1514 1516 1516 1516 1518 1518 1520 1521 1524 1524 1527 1532 1531 1533 1537 1540 1542 1544 1546 1548 1551 1551 1554 1557 1559 1562 1565 1568
1510 1511 1511 1511 1512 1512 1512 1512 1512 1512 1513 1513 1512 1512 1513 1513 1514 1513 1514 1515 1516 1516 1517 1520 1519 1521 1524 1526 1529 1531 1535 1535 1539 1543 1545 1547 1549 1551 1552 1555 1558 1561 1564
1508 1509 1509 1508 1508 1508 1510 1509 1509 1510 1512 1512 1512 1511 1510 1511 1511 1512 1513 1512 1513 1513 1515 1517 1516 1518 1520 1521 1522 1526 1527 1531 1534 1537 1539 1542 1545 1546 1549 1549 1552 1555 1559
1507 1508 1508 1507 1507 1507 1508 1508 1507 1507 1509 1510 1510 1510 1509 1509 1509 1510 1511 1512 1511 1512 1514 1513 1513 1515 1516 1517 1518 1520 1521 1524 1527 1530 1532 1534 1538 1539 1540 1546 1547 1549 1551
1504 1506 1506 1507 1506 1506 1507 1506 1506 1505 1505 1506 1505 1506 1507 1509 1508 1508 1509 1510 1509 1509 1511 1511 1511 1510 1510 1512 1514 1515 1515 1518 1522 1524 1525 1526 1529 1532 1536 1539 1540 1543 1545
1503 1503 1504 1505 1505 1505 1505 1505 1504 1503 1502 1503 1504 1506 1506 1507 1506 1506 1506 1507 1509 1508 1508 1508 1507 1507 1509 1509 1509 1509 1511 1515 1516 1517 1517 1518 1521 1524 1527 1531 1533 1534 1537
1501 1502 1502 1503 1503 1504 1504 1504 1503 1502 1501 1503 1503 1504 1506 1507 1507 1506 1507 1506 1506 1506 1507 1507 1506 1506 1504 1503 1504 1505 1507 1509 1509 1510 1509 1512 1514 1515 1518 1522 1525 1526 1530
1499 1499 1500 1500 1501 1501 1502 1501 1502 1502 1501 1502 1503 1503 1504 1506 1506 1506 1503 1502 1501 1503 1504 1503 1503 1502 1502 1501 1501 1501 1502 1503 1503 1504 1503 1505 1506 1507 1509 1512 1514 1515 1519
1496 1496 1497 1498 1498 1498 1498 1498 1498 1499 1500 1501 1502 1502 1502 1503 1503 1504 1503 1501 1500 1498 1499 1500 1500 1499 1499 1499 1498 1499 1498 1497 1496 1496 1498 1499 1499 1501 1501 1503 1503 1504 1508
1494 1495 1495 1495 1495 1495 1495 1495 1496 1497 1498 1499 1500 1500 1501 1501 1500 1500 1499 1498 1495 1492 1495 1496 1496 1495 1495 1495 1495 1494 1494 1494 1492 1491 1493 1491 1493 1492 1492 1494 1496 1497 1499
1491 1492 1493 1492 1491 1491 1492 1493 1493 1494 1495 1496 1497 1497 1497 1498 1498 1497 1495 1495 1491 1489 1489 1490 1490 1490 1490 1489 1488 1487 1488 1486 1486 1488 1488 1486 1484 1484 1484 1485 1487 1490 1492
1488 1489 1490 1490 1489 1488 1489 1489 1490 1490 1491 1491 1492 1492 1493 1493 1493 1493 1492 1491 1491 1488 1484 1484 1486 1486 1486 1486 1485 1483 1482 1480 1479 1478 1477 1477 1478 1479 1479 1478 1479 1479 1482
1484 1485 1486 1486 1486 1485 1486 1486 1486 1486 1486 1486 1486 1486 1488 1488 1488 1488 1488 1487 1486 1485 1484 1484 1482 1483 1482 1482 1481 1478 1476 1475 1474 1473 1471 1470 1469 1468 1469 1471 1471 1470 1471
1482 1482 1482 1483 1483 1483 1483 1483 1482 1481 1481 1481 1481 1481 1482 1482 1483 1483 1483 1483 1482 1482 1478 1478 1477 1477 1476 1475 1475 1473 1471 1469 1467 1467 1465 1464 1462 1460 1459 1459 1461 1461 1462
1479 1479 1479 1479 1479 1479 1478 1478 1477 1476 1476 1476 1476 1476 1476 1477 1478 1478 1479 1478 1478 1477 1475 1472 1472 1472 1470 1469 1468 1465 1464 1463 1460 1460 1459 1457 1456 1454 1452 1450 1449 1451 1452
1475 1475 1475 1475 1475 1474 1474 1473 1472 1471 1471 1471 1471 1471 1471 1472 1472 1474 1474 1473 1472 1472 1469 1466 1465 1466 1465 1464 1461 1459 1458 1455 1454 1453 1451 1449 1448 1445 1443 1442 1441 1441 1441
1470 1471 1471 1471 1470 1469 1469 1468 1467 1466 1465 1465 1465 1465 1466 1466 1467 1468 1467 1466 1466 1465 1464 1462 1460 1459 1458 1459 1456 1454 1449 1448 1444 1444 1442 1441 1439 1437 1435 1433 1432 1432 1431
1466 1466 1466 1466 1465 1464 1463 1462 1462 1461 1460 1459 1460 1459 1459 1460 1460 1460 1459 1460 1460 1459 1457 1455 1452 1452 1452 1451 1450 1448 1443 1442 1436 1436 1434 1433 1430 1428 1427 1425 1423 1421 1420
1461 1462 1461 1460 1459 1459 1458 1457 1458 1456 1454 1454 1453 1453 1453 1454 1454 1454 1454 1455 1455 1452 1449 1447 1444 1445 1446 1445 1445 1443 1439 1436 1427 1429 1426 1421 1421 1416 1415 1413 1413 1411 1410
1457 1457 1456 1455 1454 1453 1452 1451 1452 1452 1450 1449 1448 1447 1447 1446 1447 1446 1445 1446 1446 1445 1445 1444 1439 1437 1437 1440 1438 1435 1432 1428 1420 1418 1419 1410 1410 1406 1407 1405 1405 1403 1401
1452 1451 1450 1449 1448 1447 1446 1446 1447 1446 1444 1443 1442 1442 1440 1440 1439 1439 1437 1437 1437 1437 1436 1435 1432 1428 1426 1428 1427 1425 1421 1417 1412 1408 1411 1403 1399 1397 1397 1396 1395 1393 1391
1446 1445 1444 1443 1442 1442 1441 1440 1441 1440 1438 1437 1436 1436 1435 1433 1432 1432 1431 1429 1428 1426 1427 1425 1423 1420 1419 1418 1419 1416 1412 1409 1400 1396 1400 1395 1386 1388 1387 1383 1382 1382 1380
1441 1440 1439 1438 1437 1435 1436 1435 1435 1434 1432 1431 1430 1429 1429 1427 1426 1425 1423 1422 1419 1418 1417 1414 1411 1409 1407 1406 1406 1405 1402 1397 1393 1384 1389 1388 1381 1383 1377 1371 1371 1370 1370